Weather History for KOVE - January, 2014

Change the Weather History Date:

Friday, January 17, 2014

  Actual Average Record
Temperature  
Mean Temperature 52 °F -  
Max Temperature 68 °F 57 °F 75 °F (1991)
Min Temperature 37 °F 38 °F 26 °F (1963)
Degree Days  
Heating Degree Days 12    
Growing Degree Days 2 (Base 50)    
Moisture  
Dew Point 33 °F    
Average Humidity 52    
Maximum Humidity 76    
Minimum Humidity 25    
Precipitation  
Precipitation 0.00 in - - ()
Sea Level Pressure  
Sea Level Pressure 30.19 in    
Wind  
Wind Speed 2 mph (ENE)    
Max Wind Speed 7 mph    
Max Gust Speed -    
Visibility 10 miles    
Events      
Averages and records for this station are not official NWS values.
T = Trace of Precipitation, MM = Missing Value Source: NWS Daily Summary

Daily Weather History Graph

Daily Weather History Graph

Search for Another Location

Airport or City:

Trip Planner

Search our weather history database for the weather conditions in past years. The results will help you decide how hot, cold, wet, or windy it might be!

Date:

Astronomy

Jan. 17, 2014 Rise Set
Actual Time 7:24 AM PST 5:09 PM PST
Civil Twilight 6:54 AM PST 5:38 PM PST
Nautical Twilight 6:21 AM PST 6:11 PM PST
Astronomical Twilight 5:49 AM PST 6:43 PM PST
Moon 7:00 PM PST (1/17) 7:55 AM PST (1/17)
Length of Visible Light 10h 43m
Length of Day
9h 45m
Full, 98% of the Moon is Illuminated
Jan 17
Full
Jan 23
Last Quarter
Jan 30
New
Feb 6
First Quarter
Feb 14
Full

Hourly Weather History & Observations

Time (PST) Temp. Windchill Dew Point Humidity Pressure Visibility Wind Dir Wind Speed Gust Speed Precip Events Conditions
12:53 AM 46.0 °F - 33.1 °F 61% 30.20 in 10.0 mi Calm Calm - N/A   Clear
1:53 AM 45.0 °F 42.6 °F 33.1 °F 63% 30.20 in 10.0 mi ENE 4.6 mph - N/A   Clear
2:53 AM 46.9 °F - 34.0 °F 61% 30.21 in 10.0 mi East 3.5 mph - N/A   Clear
3:53 AM 43.0 °F 38.8 °F 32.0 °F 65% 30.20 in 10.0 mi NNE 6.9 mph - N/A   Clear
4:53 AM 39.9 °F - 32.0 °F 73% 30.20 in 9.0 mi Calm Calm - N/A   Clear
5:53 AM 44.1 °F - 32.0 °F 63% 30.22 in 10.0 mi Calm Calm - N/A   Clear
6:53 AM 37.9 °F 35.5 °F 30.9 °F 76% 30.23 in 10.0 mi SE 3.5 mph - N/A   Clear
7:53 AM 39.9 °F 37.8 °F 30.0 °F 68% 30.24 in 10.0 mi East 3.5 mph - N/A   Clear
8:53 AM 46.9 °F - 33.1 °F 59% 30.25 in 10.0 mi Calm Calm - N/A   Clear
9:53 AM 54.0 °F - 33.1 °F 45% 30.25 in 10.0 mi Calm Calm - N/A   Clear
10:53 AM 57.0 °F - 35.1 °F 44% 30.25 in 10.0 mi WSW 3.5 mph - N/A   Clear
11:53 AM 61.0 °F - 35.1 °F 38% 30.22 in 10.0 mi Calm Calm - N/A   Clear
12:53 PM 63.0 °F - 34.0 °F 34% 30.19 in 10.0 mi West 4.6 mph - N/A   Clear
1:53 PM 64.9 °F - 33.1 °F 31% 30.17 in 8.0 mi WNW 4.6 mph - N/A   Clear
2:53 PM 68.0 °F - 33.1 °F 27% 30.16 in 10.0 mi Calm Calm - N/A   Clear
3:53 PM 68.0 °F - 30.9 °F 25% 30.16 in 10.0 mi Calm Calm - N/A   Clear
4:53 PM 63.0 °F - 34.0 °F 34% 30.16 in 10.0 mi Calm Calm - N/A   Clear
5:53 PM 55.0 °F - 32.0 °F 42% 30.16 in 10.0 mi Calm Calm - N/A   Clear
6:53 PM 53.1 °F - 33.1 °F 47% 30.16 in 10.0 mi Calm Calm - N/A   Clear
7:53 PM 51.1 °F - 34.0 °F 52% 30.16 in 10.0 mi Calm Calm - N/A   Clear
8:53 PM 48.9 °F - 34.0 °F 56% 30.16 in 10.0 mi Calm Calm - N/A   Clear
9:53 PM 48.0 °F - 33.1 °F 56% 30.17 in 10.0 mi East 3.5 mph - N/A   Clear
10:53 PM 43.0 °F - 33.1 °F 68% 30.18 in 10.0 mi Calm Calm - N/A   Clear
11:53 PM 45.0 °F - 32.0 °F 60% 30.16 in 10.0 mi Calm Calm - N/A   Clear